Time,TemperatureF,DewpointF,PressureIn,WindDirection,WindDirectionDegrees,WindSpeedMPH,WindSpeedGustMPH,Humidity,HourlyPrecipIn,Conditions,Clouds,dailyrainin,SoftwareType,DateUTC
2013-02-21 00:00:00,23.6,12.1,29.84,West,263,2.0,12.0,61,0.00,,,0.00,Wunderground PWS Mod,2013-02-21 05:00:00,
2013-02-21 00:01:00,23.6,12.1,29.84,West,265,2.0,12.0,61,0.00,,,0.00,Wunderground PWS Mod,2013-02-21 05:01:00,
2013-02-21 00:02:00,23.6,12.1,29.84,WSW,248,2.0,12.0,61,0.00,,,0.00,Wunderground PWS Mod,2013-02-21 05:02:00,
2013-02-21 00:05:00,23.5,12.0,29.84,WNW,288,2.0,12.0,61,0.00,,,0.00,Wunderground PWS Mod,2013-02-21 05:05:00,
2013-02-21 00:10:00,23.5,12.0,29.84,West,261,2.0,9.0,61,0.00,,,0.00,Wunderground PWS Mod,2013-02-21 05:10:00,
2013-02-21 00:14:00,23.4,12.6,29.84,West,270,2.0,8.0,63,0.00,,,0.00,Wunderground PWS Mod,2013-02-21 05:14:00,
2013-02-21 00:15:00,23.5,12.4,29.84,West,268,2.0,9.0,62,0.00,,,0.00,Wunderground PWS Mod,2013-02-21 05:15:00,
2013-02-21 00:20:00,23.4,12.3,29.84,West,260,2.0,9.0,62,0.00,,,0.00,Wunderground PWS Mod,2013-02-21 05:20:00,
2013-02-21 00:25:00,23.4,12.3,29.84,WNW,291,2.0,9.0,62,0.00,,,0.00,Wunderground PWS Mod,2013-02-21 05:25:00,
2013-02-21 00:31:00,23.4,12.3,29.84,West,267,2.0,9.0,62,0.00,,,0.00,Wunderground PWS Mod,2013-02-21 05:31:00,
2013-02-21 00:36:00,23.4,12.6,29.84,West,274,2.0,9.0,63,0.00,,,0.00,Wunderground PWS Mod,2013-02-21 05:36:00,
2013-02-21 00:42:00,23.4,12.6,29.84,West,272,2.0,9.0,63,0.00,,,0.00,Wunderground PWS Mod,2013-02-21 05:42:00,
2013-02-21 00:47:00,23.5,12.4,29.84,West,272,3.0,9.0,62,0.00,,,0.00,Wunderground PWS Mod,2013-02-21 05:47:00,
2013-02-21 00:52:00,23.5,12.7,29.84,West,269,3.0,9.0,63,0.00,,,0.00,Wunderground PWS Mod,2013-02-21 05:52:00,
2013-02-21 00:58:00,23.4,12.6,29.84,West,268,1.0,9.0,63,0.00,,,0.00,Wunderground PWS Mod,2013-02-21 05:58:00,
2013-02-21 01:03:00,23.4,12.6,29.84,West,277,1.0,9.0,63,0.00,,,0.00,Wunderground PWS Mod,2013-02-21 06:03:00,
2013-02-21 01:08:00,23.4,12.6,29.84,West,273,1.0,9.0,63,0.00,,,0.00,Wunderground PWS Mod,2013-02-21 06:08:00,
2013-02-21 01:13:00,23.5,12.7,29.84,West,275,2.0,9.0,63,0.00,,,0.00,Wunderground PWS Mod,2013-02-21 06:13:00,
2013-02-21 01:18:00,23.5,13.1,29.84,West,265,2.0,9.0,64,0.00,,,0.00,Wunderground PWS Mod,2013-02-21 06:18:00,
2013-02-21 01:23:00,23.5,13.1,29.84,SW,223,2.0,9.0,64,0.00,,,0.00,Wunderground PWS Mod,2013-02-21 06:23:00,
2013-02-21 01:29:00,23.4,13.0,29.83,West,267,2.0,9.0,64,0.00,,,0.00,Wunderground PWS Mod,2013-02-21 06:29:00,
2013-02-21 01:35:00,23.5,13.1,29.84,West,280,2.0,9.0,64,0.00,,,0.00,Wunderground PWS Mod,2013-02-21 06:35:00,
2013-02-21 01:40:00,23.5,13.1,29.83,West,276,3.0,9.0,64,0.00,,,0.00,Wunderground PWS Mod,2013-02-21 06:40:00,
2013-02-21 01:45:00,23.6,13.2,29.83,WNW,291,3.0,9.0,64,0.00,,,0.00,Wunderground PWS Mod,2013-02-21 06:45:00,
2013-02-21 01:51:00,23.7,13.3,29.83,WNW,289,4.0,9.0,64,0.00,,,0.00,Wunderground PWS Mod,2013-02-21 06:51:00,
2013-02-21 01:56:00,23.6,13.2,29.82,WSW,237,3.0,11.0,64,0.00,,,0.00,Wunderground PWS Mod,2013-02-21 06:56:00,
2013-02-21 02:01:00,23.6,13.2,29.83,West,277,3.0,9.0,64,0.00,,,0.00,Wunderground PWS Mod,2013-02-21 07:01:00,
2013-02-21 02:06:00,23.5,13.1,29.83,West,261,3.0,9.0,64,0.00,,,0.00,Wunderground PWS Mod,2013-02-21 07:06:00,
2013-02-21 02:11:00,23.5,13.1,29.83,West,275,3.0,9.0,64,0.00,,,0.00,Wunderground PWS Mod,2013-02-21 07:11:00,
2013-02-21 02:16:00,23.4,13.4,29.83,West,265,3.0,9.0,65,0.00,,,0.00,Wunderground PWS Mod,2013-02-21 07:16:00,
2013-02-21 02:21:00,23.3,13.3,29.84,West,265,2.0,9.0,65,0.00,,,0.00,Wunderground PWS Mod,2013-02-21 07:21:00,
2013-02-21 02:27:00,23.3,13.3,29.84,West,261,2.0,9.0,65,0.00,,,0.00,Wunderground PWS Mod,2013-02-21 07:27:00,
2013-02-21 02:32:00,23.2,13.5,29.83,West,273,2.0,9.0,66,0.00,,,0.00,Wunderground PWS Mod,2013-02-21 07:32:00,
2013-02-21 02:37:00,23.2,13.5,29.83,West,263,2.0,9.0,66,0.00,,,0.00,Wunderground PWS Mod,2013-02-21 07:37:00,
2013-02-21 02:42:00,23.2,13.5,29.84,West,275,3.0,9.0,66,0.00,,,0.00,Wunderground PWS Mod,2013-02-21 07:42:00,
2013-02-21 02:48:00,23.2,13.5,29.83,West,275,3.0,9.0,66,0.00,,,0.00,Wunderground PWS Mod,2013-02-21 07:48:00,
2013-02-21 02:53:00,23.1,13.4,29.83,SW,234,2.0,9.0,66,0.00,,,0.00,Wunderground PWS Mod,2013-02-21 07:53:00,
2013-02-21 02:58:00,23.1,13.4,29.83,West,265,2.0,9.0,66,0.00,,,0.00,Wunderground PWS Mod,2013-02-21 07:58:00,
2013-02-21 03:03:00,22.9,13.2,29.84,West,276,1.0,9.0,66,0.00,,,0.00,Wunderground PWS Mod,2013-02-21 08:03:00,
2013-02-21 03:08:00,22.8,13.1,29.84,West,271,1.0,9.0,66,0.00,,,0.00,Wunderground PWS Mod,2013-02-21 08:08:00,
2013-02-21 03:14:00,22.6,13.3,29.84,West,267,1.0,9.0,67,0.00,,,0.00,Wunderground PWS Mod,2013-02-21 08:14:00,
2013-02-21 03:20:00,22.4,13.1,29.83,West,264,1.0,9.0,67,0.00,,,0.00,Wunderground PWS Mod,2013-02-21 08:20:00,
2013-02-21 03:25:00,22.4,13.1,29.84,WSW,257,1.0,9.0,67,0.00,,,0.00,Wunderground PWS Mod,2013-02-21 08:25:00,
2013-02-21 03:30:00,22.4,13.1,29.84,West,273,2.0,9.0,67,0.00,,,0.00,Wunderground PWS Mod,2013-02-21 08:30:00,
2013-02-21 03:35:00,22.3,13.3,29.84,WSW,252,2.0,9.0,68,0.00,,,0.00,Wunderground PWS Mod,2013-02-21 08:35:00,
2013-02-21 03:41:00,22.3,13.3,29.85,WSW,257,1.0,9.0,68,0.00,,,0.00,Wunderground PWS Mod,2013-02-21 08:41:00,
2013-02-21 03:46:00,22.2,13.2,29.85,West,272,1.0,9.0,68,0.00,,,0.00,Wunderground PWS Mod,2013-02-21 08:46:00,
2013-02-21 03:51:00,22.1,13.1,29.85,West,269,1.0,9.0,68,0.00,,,0.00,Wunderground PWS Mod,2013-02-21 08:51:00,
2013-02-21 03:57:00,22.1,13.1,29.85,WSW,257,2.0,9.0,68,0.00,,,0.00,Wunderground PWS Mod,2013-02-21 08:57:00,
2013-02-21 04:02:00,22.0,13.4,29.85,WSW,245,2.0,9.0,69,0.00,,,0.00,Wunderground PWS Mod,2013-02-21 09:02:00,
2013-02-21 04:07:00,21.9,13.3,29.85,West,267,2.0,4.0,69,0.00,,,0.00,Wunderground PWS Mod,2013-02-21 09:07:00,
2013-02-21 04:13:00,22.0,13.4,29.85,WSW,254,2.0,4.0,69,0.00,,,0.00,Wunderground PWS Mod,2013-02-21 09:13:00,
2013-02-21 04:14:00,22.0,13.4,29.85,West,270,2.0,4.0,69,0.00,,,0.00,Wunderground PWS Mod,2013-02-21 09:14:00,
2013-02-21 04:18:00,22.0,13.4,29.85,West,265,2.0,4.0,69,0.00,,,0.00,Wunderground PWS Mod,2013-02-21 09:18:00,
2013-02-21 04:23:00,22.0,13.4,29.86,West,264,2.0,4.0,69,0.00,,,0.00,Wunderground PWS Mod,2013-02-21 09:23:00,
2013-02-21 04:28:00,21.9,13.3,29.86,West,272,2.0,4.0,69,0.00,,,0.00,Wunderground PWS Mod,2013-02-21 09:28:00,
2013-02-21 04:34:00,21.9,13.6,29.86,West,260,2.0,4.0,70,0.00,,,0.00,Wunderground PWS Mod,2013-02-21 09:34:00,
2013-02-21 04:40:00,21.9,13.3,29.86,WSW,247,2.0,4.0,69,0.00,,,0.00,Wunderground PWS Mod,2013-02-21 09:40:00,
2013-02-21 04:45:00,21.9,13.3,29.86,WSW,256,2.0,5.0,69,0.00,,,0.00,Wunderground PWS Mod,2013-02-21 09:45:00,
2013-02-21 04:50:00,21.9,13.6,29.86,WNW,286,3.0,4.0,70,0.00,,,0.00,Wunderground PWS Mod,2013-02-21 09:50:00,
2013-02-21 04:56:00,21.9,13.6,29.86,West,259,3.0,4.0,70,0.00,,,0.00,Wunderground PWS Mod,2013-02-21 09:56:00,
2013-02-21 05:01:00,21.8,13.5,29.86,WNW,284,2.0,4.0,70,0.00,,,0.00,Wunderground PWS Mod,2013-02-21 10:01:00,
2013-02-21 05:07:00,21.9,13.6,29.86,West,263,2.0,4.0,70,0.00,,,0.00,Wunderground PWS Mod,2013-02-21 10:07:00,
2013-02-21 05:13:00,21.9,13.6,29.86,WNW,284,2.0,4.0,70,0.00,,,0.00,Wunderground PWS Mod,2013-02-21 10:13:00,
2013-02-21 05:18:00,21.9,13.6,29.86,West,261,2.0,4.0,70,0.00,,,0.00,Wunderground PWS Mod,2013-02-21 10:18:00,
2013-02-21 05:23:00,21.9,13.6,29.86,WSW,257,3.0,4.0,70,0.00,,,0.00,Wunderground PWS Mod,2013-02-21 10:23:00,
2013-02-21 05:28:00,22.0,13.7,29.86,WNW,284,3.0,4.0,70,0.00,,,0.00,Wunderground PWS Mod,2013-02-21 10:28:00,
2013-02-21 05:34:00,21.9,13.6,29.86,West,259,2.0,4.0,70,0.00,,,0.00,Wunderground PWS Mod,2013-02-21 10:34:00,
2013-02-21 05:40:00,21.7,13.4,29.85,West,261,2.0,4.0,70,0.00,,,0.00,Wunderground PWS Mod,2013-02-21 10:40:00,
2013-02-21 05:45:00,21.7,13.4,29.85,WSW,256,3.0,4.0,70,0.00,,,0.00,Wunderground PWS Mod,2013-02-21 10:45:00,
2013-02-21 05:50:00,21.7,13.4,29.86,WSW,245,2.0,4.0,70,0.00,,,0.00,Wunderground PWS Mod,2013-02-21 10:50:00,
2013-02-21 05:56:00,21.7,13.4,29.86,WSW,241,3.0,7.0,70,0.00,,,0.00,Wunderground PWS Mod,2013-02-21 10:56:00,
2013-02-21 06:01:00,21.7,13.4,29.86,WNW,288,3.0,4.0,70,0.00,,,0.00,Wunderground PWS Mod,2013-02-21 11:01:00,
2013-02-21 06:06:00,21.8,13.5,29.86,West,279,3.0,4.0,70,0.00,,,0.00,Wunderground PWS Mod,2013-02-21 11:06:00,
2013-02-21 06:11:00,21.8,13.5,29.86,WSW,248,2.0,4.0,70,0.00,,,0.00,Wunderground PWS Mod,2013-02-21 11:11:00,
2013-02-21 06:17:00,21.9,13.9,29.86,WSW,257,3.0,4.0,71,0.00,,,0.00,Wunderground PWS Mod,2013-02-21 11:17:00,
2013-02-21 06:23:00,22.0,13.7,29.86,NW,312,2.0,4.0,70,0.00,,,0.00,Wunderground PWS Mod,2013-02-21 11:23:00,
2013-02-21 06:28:00,22.1,13.8,29.86,WNW,295,2.0,4.0,70,0.00,,,0.00,Wunderground PWS Mod,2013-02-21 11:28:00,
2013-02-21 06:33:00,22.3,14.0,29.87,West,273,2.0,4.0,70,0.00,,,0.00,Wunderground PWS Mod,2013-02-21 11:33:00,
2013-02-21 06:39:00,22.4,14.1,29.86,West,264,3.0,4.0,70,0.00,,,0.00,Wunderground PWS Mod,2013-02-21 11:39:00,
2013-02-21 06:44:00,22.5,14.2,29.86,West,264,4.0,4.0,70,0.00,,,0.00,Wunderground PWS Mod,2013-02-21 11:44:00,
2013-02-21 06:50:00,22.6,14.0,29.86,West,268,4.0,4.0,69,0.00,,,0.00,Wunderground PWS Mod,2013-02-21 11:50:00,
2013-02-21 06:55:00,22.6,14.0,29.86,West,265,4.0,4.0,69,0.00,,,0.00,Wunderground PWS Mod,2013-02-21 11:55:00,
2013-02-21 07:00:00,22.6,14.0,29.86,West,261,4.0,6.0,69,0.00,,,0.00,Wunderground PWS Mod,2013-02-21 12:00:00,
2013-02-21 07:05:00,22.6,14.0,29.86,West,279,4.0,4.0,69,0.00,,,0.00,Wunderground PWS Mod,2013-02-21 12:05:00,
2013-02-21 07:10:00,22.5,13.9,29.86,West,267,3.0,4.0,69,0.00,,,0.00,Wunderground PWS Mod,2013-02-21 12:10:00,
2013-02-21 07:15:00,22.4,13.8,29.87,WNW,291,3.0,4.0,69,0.00,,,0.00,Wunderground PWS Mod,2013-02-21 12:15:00,
2013-02-21 07:21:00,22.5,13.9,29.87,WNW,293,3.0,4.0,69,0.00,,,0.00,Wunderground PWS Mod,2013-02-21 12:21:00,
2013-02-21 07:26:00,22.5,13.9,29.87,SW,227,2.0,4.0,69,0.00,,,0.00,Wunderground PWS Mod,2013-02-21 12:26:00,
2013-02-21 07:31:00,22.7,14.1,29.87,SW,219,1.0,4.0,69,0.00,,,0.00,Wunderground PWS Mod,2013-02-21 12:31:00,
2013-02-21 07:37:00,22.7,14.1,29.88,West,260,2.0,4.0,69,0.00,,,0.00,Wunderground PWS Mod,2013-02-21 12:37:00,
2013-02-21 07:42:00,22.8,14.1,29.88,West,259,2.0,4.0,69,0.00,,,0.00,Wunderground PWS Mod,2013-02-21 12:42:00,
2013-02-21 07:47:00,22.9,14.2,29.87,WSW,250,3.0,4.0,69,0.00,,,0.00,Wunderground PWS Mod,2013-02-21 12:47:00,
2013-02-21 07:52:00,23.1,14.4,29.87,NNW,341,4.0,4.0,69,0.00,,,0.00,Wunderground PWS Mod,2013-02-21 12:52:00,
2013-02-21 07:57:00,23.2,14.5,29.87,West,272,3.0,4.0,69,0.00,,,0.00,Wunderground PWS Mod,2013-02-21 12:57:00,
2013-02-21 08:02:00,23.2,14.2,29.87,WNW,288,3.0,4.0,68,0.00,,,0.00,Wunderground PWS Mod,2013-02-21 13:02:00,
2013-02-21 08:08:00,23.2,14.5,29.87,West,279,3.0,9.0,69,0.00,,,0.00,Wunderground PWS Mod,2013-02-21 13:08:00,
2013-02-21 08:13:00,23.3,14.6,29.87,West,275,3.0,9.0,69,0.00,,,0.00,Wunderground PWS Mod,2013-02-21 13:13:00,
2013-02-21 08:14:00,23.2,14.2,29.87,West,270,3.0,9.0,68,0.00,,,0.00,Wunderground PWS Mod,2013-02-21 13:14:00,
2013-02-21 08:18:00,23.5,14.8,29.87,West,275,2.0,9.0,69,0.00,,,0.00,Wunderground PWS Mod,2013-02-21 13:18:00,
2013-02-21 08:24:00,23.7,14.7,29.88,WNW,286,2.0,9.0,68,0.00,,,0.00,Wunderground PWS Mod,2013-02-21 13:24:00,
2013-02-21 08:30:00,23.7,14.7,29.87,WNW,287,3.0,9.0,68,0.00,,,0.00,Wunderground PWS Mod,2013-02-21 13:30:00,
2013-02-21 08:36:00,24.0,15.0,29.87,West,271,2.0,9.0,68,0.00,,,0.00,Wunderground PWS Mod,2013-02-21 13:36:00,
2013-02-21 08:41:00,24.0,15.0,29.87,West,277,2.0,9.0,68,0.00,,,0.00,Wunderground PWS Mod,2013-02-21 13:41:00,
2013-02-21 08:46:00,24.2,15.2,29.87,WSW,247,3.0,9.0,68,0.00,,,0.00,Wunderground PWS Mod,2013-02-21 13:46:00,
2013-02-21 08:51:00,24.1,14.7,29.87,West,279,3.0,9.0,67,0.00,,,0.00,Wunderground PWS Mod,2013-02-21 13:51:00,
2013-02-21 08:57:00,24.2,14.8,29.87,West,277,3.0,9.0,67,0.00,,,0.00,Wunderground PWS Mod,2013-02-21 13:57:00,
2013-02-21 09:02:00,24.6,15.5,29.87,WSW,242,3.0,9.0,68,0.00,,,0.00,Wunderground PWS Mod,2013-02-21 14:02:00,
2013-02-21 09:07:00,24.7,14.9,29.86,West,281,3.0,9.0,66,0.00,,,0.00,Wunderground PWS Mod,2013-02-21 14:07:00,
2013-02-21 09:13:00,25.1,15.3,29.86,West,268,4.0,11.0,66,0.00,,,0.00,Wunderground PWS Mod,2013-02-21 14:13:00,
2013-02-21 09:19:00,25.3,15.2,29.86,WSW,258,3.0,9.0,65,0.00,,,0.00,Wunderground PWS Mod,2013-02-21 14:19:00,
2013-02-21 09:25:00,25.6,15.1,29.86,West,279,3.0,9.0,64,0.00,,,0.00,Wunderground PWS Mod,2013-02-21 14:25:00,
2013-02-21 09:30:00,26.0,15.5,29.87,West,262,3.0,9.0,64,0.00,,,0.00,Wunderground PWS Mod,2013-02-21 14:30:00,
2013-02-21 09:35:00,26.2,15.3,29.87,WNW,283,3.0,9.0,63,0.00,,,0.00,Wunderground PWS Mod,2013-02-21 14:35:00,
2013-02-21 09:41:00,26.6,15.3,29.86,West,263,3.0,9.0,62,0.00,,,0.00,Wunderground PWS Mod,2013-02-21 14:41:00,
2013-02-21 09:47:00,27.0,15.3,29.86,West,269,4.0,9.0,61,0.00,,,0.00,Wunderground PWS Mod,2013-02-21 14:47:00,
2013-02-21 09:52:00,27.3,15.2,29.86,West,265,4.0,9.0,60,0.00,,,0.00,Wunderground PWS Mod,2013-02-21 14:52:00,
2013-02-21 09:58:00,27.6,15.1,29.86,WSW,245,5.0,9.0,59,0.00,,,0.00,Wunderground PWS Mod,2013-02-21 14:58:00,
2013-02-21 10:03:00,27.7,14.8,29.86,WNW,292,5.0,9.0,58,0.00,,,0.00,Wunderground PWS Mod,2013-02-21 15:03:00,
2013-02-21 10:09:00,28.0,15.1,29.86,West,267,4.0,9.0,58,0.00,,,0.00,Wunderground PWS Mod,2013-02-21 15:09:00,
2013-02-21 10:14:00,28.1,14.4,29.85,West,280,4.0,9.0,56,0.00,,,0.00,Wunderground PWS Mod,2013-02-21 15:14:00,
2013-02-21 10:20:00,28.3,14.2,29.85,WSW,258,5.0,9.0,55,0.00,,,0.00,Wunderground PWS Mod,2013-02-21 15:20:00,
2013-02-21 10:25:00,28.7,14.6,29.85,West,279,4.0,9.0,55,0.00,,,0.00,Wunderground PWS Mod,2013-02-21 15:25:00,
2013-02-21 10:30:00,28.8,14.6,29.85,NNE,28,4.0,9.0,55,0.00,,,0.00,Wunderground PWS Mod,2013-02-21 15:30:00,
2013-02-21 10:36:00,28.8,14.6,29.84,WSW,257,5.0,9.0,55,0.00,,,0.00,Wunderground PWS Mod,2013-02-21 15:36:00,
2013-02-21 10:41:00,29.2,14.6,29.84,WNW,302,4.0,9.0,54,0.00,,,0.00,Wunderground PWS Mod,2013-02-21 15:41:00,
2013-02-21 10:47:00,29.2,14.2,29.84,WNW,291,5.0,9.0,53,0.00,,,0.00,Wunderground PWS Mod,2013-02-21 15:47:00,
2013-02-21 10:52:00,29.4,14.4,29.84,WNW,292,6.0,9.0,53,0.00,,,0.00,Wunderground PWS Mod,2013-02-21 15:52:00,
2013-02-21 10:57:00,29.3,13.8,29.84,WNW,302,6.0,9.0,52,0.00,,,0.00,Wunderground PWS Mod,2013-02-21 15:57:00,
2013-02-21 11:02:00,29.5,14.0,29.84,WNW,301,6.0,9.0,52,0.00,,,0.00,Wunderground PWS Mod,2013-02-21 16:02:00,
2013-02-21 11:07:00,29.8,14.3,29.84,WSW,248,5.0,9.0,52,0.00,,,0.00,Wunderground PWS Mod,2013-02-21 16:07:00,
2013-02-21 11:13:00,30.2,14.7,29.83,WNW,283,5.0,9.0,52,0.00,,,0.00,Wunderground PWS Mod,2013-02-21 16:13:00,
2013-02-21 11:19:00,30.3,14.8,29.84,WNW,283,5.0,9.0,52,0.00,,,0.00,Wunderground PWS Mod,2013-02-21 16:19:00,
2013-02-21 11:25:00,30.5,14.9,29.83,East,82,5.0,9.0,52,0.00,,,0.00,Wunderground PWS Mod,2013-02-21 16:25:00,
2013-02-21 11:30:00,30.7,15.1,29.83,NW,313,5.0,9.0,52,0.00,,,0.00,Wunderground PWS Mod,2013-02-21 16:30:00,
2013-02-21 11:35:00,30.6,14.6,29.84,NNW,334,5.0,9.0,51,0.00,,,0.00,Wunderground PWS Mod,2013-02-21 16:35:00,
2013-02-21 11:41:00,31.0,15.4,29.84,NW,312,4.0,9.0,52,0.00,,,0.00,Wunderground PWS Mod,2013-02-21 16:41:00,
2013-02-21 11:47:00,30.9,15.3,29.84,NNE,16,5.0,9.0,52,0.00,,,0.00,Wunderground PWS Mod,2013-02-21 16:47:00,
2013-02-21 11:52:00,31.0,16.3,29.84,WNW,291,6.0,9.0,54,0.00,,,0.00,Wunderground PWS Mod,2013-02-21 16:52:00,
2013-02-21 11:57:00,30.9,16.2,29.84,WNW,295,6.0,9.0,54,0.00,,,0.00,Wunderground PWS Mod,2013-02-21 16:57:00,
2013-02-21 12:03:00,30.8,16.1,29.84,WNW,296,5.0,9.0,54,0.00,,,0.00,Wunderground PWS Mod,2013-02-21 17:03:00,
2013-02-21 12:08:00,30.7,16.0,29.84,WNW,289,5.0,14.0,54,0.00,,,0.00,Wunderground PWS Mod,2013-02-21 17:08:00,
2013-02-21 12:13:00,31.1,16.4,29.83,North,9,5.0,14.0,54,0.00,,,0.00,Wunderground PWS Mod,2013-02-21 17:13:00,
2013-02-21 12:14:00,30.8,16.1,29.84,NW,315,5.0,14.0,54,0.00,,,0.00,Wunderground PWS Mod,2013-02-21 17:14:00,
2013-02-21 12:19:00,31.0,15.8,29.83,NW,313,6.0,14.0,53,0.00,,,0.00,Wunderground PWS Mod,2013-02-21 17:19:00,
2013-02-21 12:24:00,31.0,16.3,29.83,NNW,340,6.0,14.0,54,0.00,,,0.00,Wunderground PWS Mod,2013-02-21 17:24:00,
2013-02-21 12:30:00,31.0,15.4,29.83,NW,325,5.0,14.0,52,0.00,,,0.00,Wunderground PWS Mod,2013-02-21 17:30:00,
2013-02-21 12:35:00,30.9,16.2,29.83,North,355,6.0,14.0,54,0.00,,,0.00,Wunderground PWS Mod,2013-02-21 17:35:00,
2013-02-21 12:40:00,30.8,15.7,29.83,North,355,6.0,14.0,53,0.00,,,0.00,Wunderground PWS Mod,2013-02-21 17:40:00,
2013-02-21 12:45:00,30.8,15.7,29.84,NW,325,6.0,14.0,53,0.00,,,0.00,Wunderground PWS Mod,2013-02-21 17:45:00,
2013-02-21 12:51:00,30.7,16.4,29.83,WNW,301,6.0,14.0,55,0.00,,,0.00,Wunderground PWS Mod,2013-02-21 17:51:00,
2013-02-21 12:56:00,31.0,15.8,29.83,West,279,6.0,14.0,53,0.00,,,0.00,Wunderground PWS Mod,2013-02-21 17:56:00,
2013-02-21 13:01:00,30.7,15.6,29.83,WNW,283,7.0,14.0,53,0.00,,,0.00,Wunderground PWS Mod,2013-02-21 18:01:00,
2013-02-21 13:06:00,30.9,16.2,29.83,WNW,284,6.0,14.0,54,0.00,,,0.00,Wunderground PWS Mod,2013-02-21 18:06:00,
2013-02-21 13:11:00,31.0,15.8,29.83,NW,312,5.0,14.0,53,0.00,,,0.00,Wunderground PWS Mod,2013-02-21 18:11:00,
2013-02-21 13:17:00,31.1,15.5,29.83,WNW,293,5.0,14.0,52,0.00,,,0.00,Wunderground PWS Mod,2013-02-21 18:17:00,
2013-02-21 13:23:00,31.3,16.6,29.82,East,79,6.0,14.0,54,0.00,,,0.00,Wunderground PWS Mod,2013-02-21 18:23:00,
2013-02-21 13:28:00,31.5,15.9,29.83,NNW,333,5.0,14.0,52,0.00,,,0.00,Wunderground PWS Mod,2013-02-21 18:28:00,
2013-02-21 13:33:00,31.6,16.0,29.83,North,355,5.0,14.0,52,0.00,,,0.00,Wunderground PWS Mod,2013-02-21 18:33:00,
2013-02-21 13:38:00,31.7,16.1,29.82,WNW,293,5.0,14.0,52,0.00,,,0.00,Wunderground PWS Mod,2013-02-21 18:38:00,
2013-02-21 13:43:00,31.8,15.7,29.82,WSW,254,6.0,14.0,51,0.00,,,0.00,Wunderground PWS Mod,2013-02-21 18:43:00,
2013-02-21 13:48:00,32.1,16.0,29.82,West,270,6.0,14.0,51,0.00,,,0.00,Wunderground PWS Mod,2013-02-21 18:48:00,
2013-02-21 13:53:00,32.0,15.9,29.82,NW,322,7.0,14.0,51,0.00,,,0.00,Wunderground PWS Mod,2013-02-21 18:53:00,
2013-02-21 13:58:00,32.1,16.4,29.82,NNE,24,7.0,14.0,52,0.00,,,0.00,Wunderground PWS Mod,2013-02-21 18:58:00,
2013-02-21 14:04:00,31.5,15.9,29.83,NW,323,6.0,14.0,52,0.00,,,0.00,Wunderground PWS Mod,2013-02-21 19:04:00,
2013-02-21 14:10:00,31.3,15.7,29.83,NW,318,7.0,14.0,52,0.00,,,0.00,Wunderground PWS Mod,2013-02-21 19:10:00,
2013-02-21 14:16:00,31.1,15.5,29.83,NW,309,7.0,14.0,52,0.00,,,0.00,Wunderground PWS Mod,2013-02-21 19:16:00,
2013-02-21 14:21:00,31.0,15.8,29.83,NNE,19,7.0,14.0,53,0.00,,,0.00,Wunderground PWS Mod,2013-02-21 19:21:00,
2013-02-21 14:26:00,31.2,16.0,29.84,NNW,327,6.0,14.0,53,0.00,,,0.00,Wunderground PWS Mod,2013-02-21 19:26:00,
2013-02-21 14:31:00,31.4,15.8,29.84,WNW,299,6.0,14.0,52,0.00,,,0.00,Wunderground PWS Mod,2013-02-21 19:31:00,
2013-02-21 14:37:00,31.3,16.1,29.84,NNE,20,6.0,14.0,53,0.00,,,0.00,Wunderground PWS Mod,2013-02-21 19:37:00,
2013-02-21 14:43:00,31.3,15.7,29.84,NW,313,5.0,14.0,52,0.00,,,0.00,Wunderground PWS Mod,2013-02-21 19:43:00,
2013-02-21 14:49:00,31.2,16.0,29.85,West,269,5.0,14.0,53,0.00,,,0.00,Wunderground PWS Mod,2013-02-21 19:49:00,
2013-02-21 14:55:00,31.4,15.8,29.85,NNW,337,5.0,14.0,52,0.00,,,0.00,Wunderground PWS Mod,2013-02-21 19:55:00,
2013-02-21 15:00:00,31.2,15.6,29.85,WNW,292,5.0,14.0,52,0.00,,,0.00,Wunderground PWS Mod,2013-02-21 20:00:00,
2013-02-21 15:05:00,31.2,15.6,29.85,North,360,5.0,14.0,52,0.00,,,0.00,Wunderground PWS Mod,2013-02-21 20:05:00,
2013-02-21 15:10:00,31.3,15.7,29.86,NNW,343,3.0,14.0,52,0.00,,,0.00,Wunderground PWS Mod,2013-02-21 20:10:00,
2013-02-21 15:15:00,31.1,15.1,29.86,NNW,342,5.0,14.0,51,0.00,,,0.00,Wunderground PWS Mod,2013-02-21 20:15:00,
2013-02-21 15:21:00,31.1,15.5,29.86,NNW,347,6.0,14.0,52,0.00,,,0.00,Wunderground PWS Mod,2013-02-21 20:21:00,
2013-02-21 15:27:00,31.1,15.5,29.86,NW,325,4.0,14.0,52,0.00,,,0.00,Wunderground PWS Mod,2013-02-21 20:27:00,
2013-02-21 15:32:00,31.3,16.1,29.86,NNW,333,4.0,14.0,53,0.00,,,0.00,Wunderground PWS Mod,2013-02-21 20:32:00,
2013-02-21 15:37:00,31.2,15.6,29.87,NNE,26,5.0,14.0,52,0.00,,,0.00,Wunderground PWS Mod,2013-02-21 20:37:00,
2013-02-21 15:42:00,30.7,15.1,29.86,NW,326,5.0,14.0,52,0.00,,,0.00,Wunderground PWS Mod,2013-02-21 20:42:00,
2013-02-21 15:47:00,30.5,14.9,29.87,NNE,20,5.0,14.0,52,0.00,,,0.00,Wunderground PWS Mod,2013-02-21 20:47:00,
2013-02-21 15:53:00,30.3,14.8,29.88,NW,313,6.0,14.0,52,0.00,,,0.00,Wunderground PWS Mod,2013-02-21 20:53:00,
2013-02-21 15:58:00,30.5,14.9,29.87,ENE,59,5.0,19.0,52,0.00,,,0.00,Wunderground PWS Mod,2013-02-21 20:58:00,
2013-02-21 16:03:00,30.0,14.9,29.88,NW,318,6.0,14.0,53,0.00,,,0.00,Wunderground PWS Mod,2013-02-21 21:03:00,
2013-02-21 16:09:00,30.1,15.4,29.88,West,280,6.0,19.0,54,0.00,,,0.00,Wunderground PWS Mod,2013-02-21 21:09:00,
2013-02-21 16:14:00,30.2,15.5,29.88,NNW,345,5.0,19.0,54,0.00,,,0.00,Wunderground PWS Mod,2013-02-21 21:14:00,
2013-02-21 16:20:00,29.9,15.3,29.89,ENE,78,4.0,19.0,54,0.00,,,0.00,Wunderground PWS Mod,2013-02-21 21:20:00,
2013-02-21 16:25:00,29.6,14.5,29.90,NNW,338,4.0,19.0,53,0.00,,,0.00,Wunderground PWS Mod,2013-02-21 21:25:00,
2013-02-21 16:30:00,29.3,14.7,29.90,NNW,344,5.0,19.0,54,0.00,,,0.00,Wunderground PWS Mod,2013-02-21 21:30:00,
2013-02-21 16:36:00,28.9,14.3,29.91,NNW,329,5.0,19.0,54,0.00,,,0.00,Wunderground PWS Mod,2013-02-21 21:36:00,
2013-02-21 16:41:00,28.7,14.6,29.90,NW,320,5.0,19.0,55,0.00,,,0.00,Wunderground PWS Mod,2013-02-21 21:41:00,
2013-02-21 16:46:00,28.5,14.4,29.91,North,360,5.0,19.0,55,0.00,,,0.00,Wunderground PWS Mod,2013-02-21 21:46:00,
2013-02-21 16:51:00,28.4,14.3,29.91,West,260,5.0,19.0,55,0.00,,,0.00,Wunderground PWS Mod,2013-02-21 21:51:00,
2013-02-21 16:57:00,28.4,14.3,29.91,NNW,336,4.0,19.0,55,0.00,,,0.00,Wunderground PWS Mod,2013-02-21 21:57:00,
2013-02-21 17:02:00,28.2,14.5,29.92,NNW,335,4.0,19.0,56,0.00,,,0.00,Wunderground PWS Mod,2013-02-21 22:02:00,
2013-02-21 17:08:00,28.1,14.4,29.92,NW,325,5.0,19.0,56,0.00,,,0.00,Wunderground PWS Mod,2013-02-21 22:08:00,
2013-02-21 17:14:00,28.0,13.9,29.93,North,355,5.0,19.0,55,0.00,,,0.00,Wunderground PWS Mod,2013-02-21 22:14:00,
2013-02-21 17:20:00,27.8,14.1,29.94,NW,311,4.0,19.0,56,0.00,,,0.00,Wunderground PWS Mod,2013-02-21 22:20:00,
2013-02-21 17:26:00,27.7,14.0,29.94,WNW,287,3.0,19.0,56,0.00,,,0.00,Wunderground PWS Mod,2013-02-21 22:26:00,
2013-02-21 17:31:00,27.5,13.8,29.94,WNW,289,4.0,19.0,56,0.00,,,0.00,Wunderground PWS Mod,2013-02-21 22:31:00,
2013-02-21 17:36:00,27.4,14.1,29.95,North,5,4.0,19.0,57,0.00,,,0.00,Wunderground PWS Mod,2013-02-21 22:36:00,
2013-02-21 17:42:00,27.1,13.9,29.96,NE,34,3.0,19.0,57,0.00,,,0.00,Wunderground PWS Mod,2013-02-21 22:42:00,
2013-02-21 17:47:00,26.9,13.7,29.97,NW,317,4.0,19.0,57,0.00,,,0.00,Wunderground PWS Mod,2013-02-21 22:47:00,
2013-02-21 17:52:00,26.6,13.4,29.97,NNW,348,4.0,19.0,57,0.00,,,0.00,Wunderground PWS Mod,2013-02-21 22:52:00,
2013-02-21 17:58:00,26.4,13.6,29.97,ENE,68,5.0,19.0,58,0.00,,,0.00,Wunderground PWS Mod,2013-02-21 22:58:00,
2013-02-21 18:04:00,26.3,13.5,29.98,WSW,254,5.0,19.0,58,0.00,,,0.00,Wunderground PWS Mod,2013-02-21 23:04:00,
2013-02-21 18:10:00,26.2,13.4,29.98,WSW,246,4.0,19.0,58,0.00,,,0.00,Wunderground PWS Mod,2013-02-21 23:10:00,
2013-02-21 18:15:00,26.1,13.7,29.98,NW,325,4.0,19.0,59,0.00,,,0.00,Wunderground PWS Mod,2013-02-21 23:15:00,
2013-02-21 18:21:00,25.8,13.4,29.98,NNW,341,3.0,19.0,59,0.00,,,0.00,Wunderground PWS Mod,2013-02-21 23:21:00,
2013-02-21 18:26:00,25.6,13.2,29.99,WNW,302,3.0,19.0,59,0.00,,,0.00,Wunderground PWS Mod,2013-02-21 23:26:00,
2013-02-21 18:31:00,25.4,13.1,29.99,West,281,4.0,19.0,59,0.00,,,0.00,Wunderground PWS Mod,2013-02-21 23:31:00,
2013-02-21 18:36:00,25.3,13.3,30.00,NNW,331,4.0,19.0,60,0.00,,,0.00,Wunderground PWS Mod,2013-02-21 23:36:00,
2013-02-21 18:42:00,25.2,12.9,30.00,NE,46,3.0,19.0,59,0.00,,,0.00,Wunderground PWS Mod,2013-02-21 23:42:00,
2013-02-21 18:47:00,25.1,12.8,30.00,NW,325,3.0,19.0,59,0.00,,,0.00,Wunderground PWS Mod,2013-02-21 23:47:00,
2013-02-21 18:52:00,25.0,13.1,30.01,WNW,297,4.0,19.0,60,0.00,,,0.00,Wunderground PWS Mod,2013-02-21 23:52:00,
2013-02-21 18:57:00,24.9,13.0,30.01,NW,326,4.0,19.0,60,0.00,,,0.00,Wunderground PWS Mod,2013-02-21 23:57:00,
2013-02-21 19:02:00,24.7,12.8,30.01,NE,42,4.0,19.0,60,0.00,,,0.00,Wunderground PWS Mod,2013-02-22 00:02:00,
2013-02-21 19:08:00,24.6,12.7,30.01,North,355,3.0,19.0,60,0.00,,,0.00,Wunderground PWS Mod,2013-02-22 00:08:00,
2013-02-21 19:13:00,24.5,13.0,30.01,NW,322,4.0,19.0,61,0.00,,,0.00,Wunderground PWS Mod,2013-02-22 00:13:00,
2013-02-21 19:18:00,24.4,12.9,30.02,NW,308,4.0,19.0,61,0.00,,,0.00,Wunderground PWS Mod,2013-02-22 00:18:00,
2013-02-21 19:23:00,24.4,12.5,30.02,North,351,3.0,19.0,60,0.00,,,0.00,Wunderground PWS Mod,2013-02-22 00:23:00,
2013-02-21 19:29:00,24.3,12.8,30.03,NW,312,3.0,19.0,61,0.00,,,0.00,Wunderground PWS Mod,2013-02-22 00:29:00,
2013-02-21 19:35:00,24.2,12.7,30.03,North,355,3.0,19.0,61,0.00,,,0.00,Wunderground PWS Mod,2013-02-22 00:35:00,
2013-02-21 19:40:00,24.2,12.7,30.03,NE,53,4.0,19.0,61,0.00,,,0.00,Wunderground PWS Mod,2013-02-22 00:40:00,
2013-02-21 19:46:00,24.1,12.6,30.03,NW,315,3.0,19.0,61,0.00,,,0.00,Wunderground PWS Mod,2013-02-22 00:46:00,
2013-02-21 19:51:00,24.1,12.9,30.04,North,355,2.0,19.0,62,0.00,,,0.00,Wunderground PWS Mod,2013-02-22 00:51:00,
2013-02-21 19:56:00,24.1,12.6,30.04,NE,42,3.0,19.0,61,0.00,,,0.00,Wunderground PWS Mod,2013-02-22 00:56:00,
2013-02-21 20:01:00,24.1,12.6,30.05,NNW,331,3.0,19.0,61,0.00,,,0.00,Wunderground PWS Mod,2013-02-22 01:01:00,
2013-02-21 20:07:00,24.1,12.9,30.05,NNW,328,3.0,9.0,62,0.00,,,0.00,Wunderground PWS Mod,2013-02-22 01:07:00,
2013-02-21 20:12:00,24.0,12.9,30.05,ENE,73,3.0,9.0,62,0.00,,,0.00,Wunderground PWS Mod,2013-02-22 01:12:00,
2013-02-21 20:14:00,24.1,12.9,30.05,North,0,3.0,9.0,62,0.00,,,0.00,Wunderground PWS Mod,2013-02-22 01:14:00,
2013-02-21 20:17:00,24.1,12.9,30.06,NNW,346,3.0,9.0,62,0.00,,,0.00,Wunderground PWS Mod,2013-02-22 01:17:00,
2013-02-21 20:22:00,24.2,13.0,30.06,NNE,14,3.0,9.0,62,0.00,,,0.00,Wunderground PWS Mod,2013-02-22 01:22:00,
2013-02-21 20:28:00,24.2,13.0,30.07,North,360,3.0,9.0,62,0.00,,,0.00,Wunderground PWS Mod,2013-02-22 01:28:00,
2013-02-21 20:33:00,24.2,13.4,30.07,NNW,339,2.0,9.0,63,0.00,,,0.00,Wunderground PWS Mod,2013-02-22 01:33:00,
2013-02-21 20:38:00,24.3,13.5,30.09,North,351,3.0,9.0,63,0.00,,,0.00,Wunderground PWS Mod,2013-02-22 01:38:00,
2013-02-21 20:44:00,24.4,13.6,30.09,NW,307,3.0,9.0,63,0.00,,,0.00,Wunderground PWS Mod,2013-02-22 01:44:00,
2013-02-21 20:50:00,24.3,13.5,30.09,NNW,331,2.0,9.0,63,0.00,,,0.00,Wunderground PWS Mod,2013-02-22 01:50:00,
2013-02-21 20:56:00,24.3,13.5,30.09,North,360,2.0,9.0,63,0.00,,,0.00,Wunderground PWS Mod,2013-02-22 01:56:00,
2013-02-21 21:02:00,24.2,13.8,30.08,ENE,58,2.0,9.0,64,0.00,,,0.00,Wunderground PWS Mod,2013-02-22 02:02:00,
2013-02-21 21:07:00,24.2,13.8,30.09,NNE,30,3.0,9.0,64,0.00,,,0.00,Wunderground PWS Mod,2013-02-22 02:07:00,
2013-02-21 21:12:00,24.2,13.8,30.10,North,11,2.0,9.0,64,0.00,,,0.00,Wunderground PWS Mod,2013-02-22 02:12:00,
2013-02-21 21:17:00,24.3,14.2,30.10,NNE,14,2.0,9.0,65,0.00,,,0.00,Wunderground PWS Mod,2013-02-22 02:17:00,
2013-02-21 21:23:00,24.3,14.2,30.09,NNE,28,2.0,9.0,65,0.00,,,0.00,Wunderground PWS Mod,2013-02-22 02:23:00,
2013-02-21 21:28:00,24.4,14.3,30.10,NW,323,2.0,9.0,65,0.00,,,0.00,Wunderground PWS Mod,2013-02-22 02:28:00,
2013-02-21 21:33:00,24.4,14.3,30.11,ENE,61,2.0,9.0,65,0.00,,,0.00,Wunderground PWS Mod,2013-02-22 02:33:00,
2013-02-21 21:38:00,24.5,14.8,30.11,NNE,13,2.0,9.0,66,0.00,,,0.00,Wunderground PWS Mod,2013-02-22 02:38:00,
2013-02-21 21:43:00,24.5,14.8,30.11,North,5,1.0,9.0,66,0.00,,,0.00,Wunderground PWS Mod,2013-02-22 02:43:00,
2013-02-21 21:48:00,24.4,15.0,30.11,NNE,22,1.0,9.0,67,0.00,,,0.00,Wunderground PWS Mod,2013-02-22 02:48:00,
2013-02-21 21:53:00,24.5,15.1,30.12,NW,307,1.0,9.0,67,0.00,,,0.00,Wunderground PWS Mod,2013-02-22 02:53:00,
2013-02-21 21:58:00,24.6,14.9,30.13,NE,53,2.0,9.0,66,0.00,,,0.00,Wunderground PWS Mod,2013-02-22 02:58:00,
2013-02-21 22:03:00,24.7,14.9,30.13,NW,320,1.0,9.0,66,0.00,,,0.00,Wunderground PWS Mod,2013-02-22 03:03:00,
2013-02-21 22:09:00,24.6,15.2,30.13,NW,310,1.0,9.0,67,0.00,,,0.00,Wunderground PWS Mod,2013-02-22 03:09:00,
2013-02-21 22:14:00,24.6,15.2,30.14,NNW,333,2.0,9.0,67,0.00,,,0.00,Wunderground PWS Mod,2013-02-22 03:14:00,
2013-02-21 22:20:00,24.6,15.2,30.15,WNW,298,3.0,9.0,67,0.00,,,0.00,Wunderground PWS Mod,2013-02-22 03:20:00,
2013-02-21 22:25:00,24.5,15.1,30.14,WNW,298,2.0,9.0,67,0.00,,,0.00,Wunderground PWS Mod,2013-02-22 03:25:00,
2013-02-21 22:30:00,24.4,15.0,30.14,NW,316,2.0,9.0,67,0.00,,,0.00,Wunderground PWS Mod,2013-02-22 03:30:00,
2013-02-21 22:35:00,24.3,15.3,30.14,NNW,344,2.0,9.0,68,0.00,,,0.00,Wunderground PWS Mod,2013-02-22 03:35:00,
2013-02-21 22:41:00,24.4,15.3,30.14,NNW,328,2.0,9.0,68,0.00,,,0.00,Wunderground PWS Mod,2013-02-22 03:41:00,
2013-02-21 22:46:00,24.3,15.3,30.15,North,350,3.0,9.0,68,0.00,,,0.00,Wunderground PWS Mod,2013-02-22 03:46:00,
2013-02-21 22:51:00,24.1,15.1,30.16,NNE,17,2.0,9.0,68,0.00,,,0.00,Wunderground PWS Mod,2013-02-22 03:51:00,
2013-02-21 22:56:00,24.2,15.5,30.16,WNW,298,2.0,9.0,69,0.00,,,0.00,Wunderground PWS Mod,2013-02-22 03:56:00,
2013-02-21 23:01:00,24.2,15.5,30.16,NNW,343,2.0,9.0,69,0.00,,,0.00,Wunderground PWS Mod,2013-02-22 04:01:00,
2013-02-21 23:07:00,24.3,15.6,30.17,WNW,299,2.0,9.0,69,0.00,,,0.00,Wunderground PWS Mod,2013-02-22 04:07:00,
2013-02-21 23:12:00,24.3,15.6,30.18,West,264,2.0,9.0,69,0.00,,,0.00,Wunderground PWS Mod,2013-02-22 04:12:00,
2013-02-21 23:18:00,24.3,15.9,30.18,NW,311,1.0,9.0,70,0.00,,,0.00,Wunderground PWS Mod,2013-02-22 04:18:00,
2013-02-21 23:23:00,24.3,15.9,30.19,NNE,16,1.0,9.0,70,0.00,,,0.00,Wunderground PWS Mod,2013-02-22 04:23:00,
2013-02-21 23:28:00,24.3,15.9,30.18,NNE,15,2.0,9.0,70,0.00,,,0.00,Wunderground PWS Mod,2013-02-22 04:28:00,
2013-02-21 23:33:00,24.3,15.9,30.19,NW,323,2.0,9.0,70,0.00,,,0.00,Wunderground PWS Mod,2013-02-22 04:33:00,
2013-02-21 23:38:00,24.3,15.9,30.19,NE,45,2.0,9.0,70,0.00,,,0.00,Wunderground PWS Mod,2013-02-22 04:38:00,
2013-02-21 23:43:00,24.3,15.9,30.20,NW,322,1.0,9.0,70,0.00,,,0.00,Wunderground PWS Mod,2013-02-22 04:43:00,
2013-02-21 23:49:00,24.4,16.3,30.20,NE,56,1.0,9.0,71,0.00,,,0.00,Wunderground PWS Mod,2013-02-22 04:49:00,
2013-02-21 23:54:00,24.5,16.4,30.19,NNW,339,2.0,9.0,71,0.00,,,0.00,Wunderground PWS Mod,2013-02-22 04:54:00,